EW1820 Weather Reports


Display with metric or nautical units.
time (UTC)temp
F
wind
direction
speed
MPH
gust
MPH
rain 1hr
in
rain 24hr
in
rain mn
in
humidity
%
barometer
mb
20260507185048 47 234 5.0 8.0 0.00 0.81 0.81 99 1003.4
20260507184554 47 219 5.0 9.0 0.00 0.81 0.81 99 1003.4
20260507184043 47 238 5.0 9.0 0.00 0.81 0.81 100 1003.4
20260507183544 47 250 5.0 9.0 0.00 0.81 0.81 100 1003.3
20260507183102 47 236 4.0 8.0 0.00 0.81 0.81 100 1003.3
20260507182545 46 253 5.0 8.0 0.00 0.81 0.81 100 1003.4
20260507182045 47 238 5.0 8.0 0.00 0.81 0.81 100 1003.5
20260507181554 46 226 5.0 8.0 0.00 0.81 0.81 100 1003.5
20260507181044 47 232 3.0 8.0 0.00 0.81 0.81 100 1003.5
20260507180545 47 250 4.0 8.0 0.00 0.81 0.81 100 1003.3
20260507180056 47 248 4.0 8.0 0.00 0.81 0.81 100 1003.4
20260507175544 47 313 3.0 7.0 0.00 0.81 0.81 100 1003.4
20260507175046 47 245 4.0 8.0 0.00 0.81 0.81 100 1003.3
20260507174554 47 265 3.0 9.0 0.00 0.81 0.81 100 1003.2
20260507174046 47 270 5.0 9.0 0.00 0.81 0.81 100 1003.2
20260507173545 47 276 6.0 9.0 0.00 0.81 0.81 100 1003.2
20260507173130 46 300 2.0 9.0 0.00 0.81 0.81 100 1003.2
20260507172543 46 245 3.0 9.0 0.00 0.81 0.81 100 1003.5
20260507172044 47 238 3.0 9.0 0.00 0.81 0.81 100 1003.5
20260507171556 48 298 4.0 9.0 0.00 0.81 0.81 100 1003.4
20260507171045 48 301 4.0 8.0 0.00 0.81 0.81 100 1003.5
20260507170545 48 279 4.0 9.0 0.00 0.81 0.81 100 1003.6
20260507170053 48 258 4.0 10.0 0.00 0.81 0.81 100 1003.5
20260507165544 47 287 4.0 10.0 0.00 0.81 0.81 100 1003.6
20260507165044 47 292 5.0 8.0 0.00 0.81 0.81 100 1003.7
20260507164604 47 311 3.0 9.0 0.00 0.81 0.81 100 1003.6
20260507164045 46 325 3.0 9.0 0.00 0.81 0.81 100 1003.7
20260507163545 46 292 6.0 10.0 0.01 0.81 0.81 100 1003.9
20260507163054 46 274 6.0 10.0 0.01 0.81 0.81 100 1004.0
20260507162544 46 304 5.0 10.0 0.02 0.81 0.81 100 1003.9
20260507162045 46 305 7.0 10.0 0.02 0.81 0.81 100 1004.0
20260507161607 46 280 7.0 10.0 0.02 0.81 0.81 100 1003.9
20260507161045 46 342 4.0 9.0 0.03 0.81 0.81 100 1003.1
20260507160545 46 297 4.0 8.0 0.02 0.81 0.81 100 1003.5
20260507160103 45 296 3.0 8.0 0.03 0.81 0.81 100 1004.1
20260507155544 45 290 1.0 6.0 0.05 0.81 0.81 100 1004.2
20260507155045 45 271 2.0 8.0 0.07 0.81 0.81 100 1004.5
20260507154550 44 263 2.0 10.0 0.07 0.81 0.81 100 1004.5
20260507154042 44 254 5.0 10.0 0.08 0.81 0.81 100 1004.5
20260507153542 45 231 7.0 9.0 0.09 0.80 0.80 100 1004.7
20260507153055 45 231 4.0 8.0 0.10 0.80 0.80 100 1004.5
20260507152548 45 225 6.0 8.0 0.10 0.79 0.79 100 1004.2
20260507152045 45 225 3.0 6.0 0.10 0.79 0.79 100 1004.0
20260507151549 45 240 3.0 5.0 0.10 0.79 0.79 100 1003.6
20260507151042 45 222 1.0 3.0 0.09 0.78 0.78 100 1003.5
20260507150550 45 221 0.0 4.0 0.10 0.78 0.78 100 1003.5
20260507150053 45 221 1.0 5.0 0.08 0.77 0.77 100 1003.7
20260507145542 45 221 3.0 6.0 0.06 0.74 0.74 100 1004.0
20260507145044 45 223 3.0 6.0 0.05 0.74 0.74 100 1004.3
20260507144601 45 203 4.0 6.0 0.04 0.73 0.73 100 1004.5
20260507144042 45 199 3.0 7.0 0.03 0.71 0.71 100 1004.5
20260507143541 45 221 3.0 8.0 0.03 0.70 0.70 100 1004.2
20260507143051 46 221 4.0 8.0 0.04 0.70 0.70 100 1004.2
20260507142541 46 240 4.0 7.0 0.05 0.69 0.69 100 1004.2
20260507142045 46 200 2.0 5.0 0.07 0.69 0.69 100 1004.3
20260507141610 46 0 1.0 3.0 0.07 0.69 0.69 100 1003.7
20260507141042 46 148 0.0 3.0 0.08 0.69 0.69 100 1003.7
20260507140542 46 0 0.0 5.0 0.08 0.68 0.68 100 1003.7
20260507140058 46 148 1.0 5.0 0.10 0.68 0.68 100 1003.7
20260507135546 46 148 2.0 5.0 0.11 0.68 0.68 100 1004.0
20260507135045 46 148 1.0 3.0 0.12 0.68 0.68 100 1004.0
20260507134601 46 148 1.0 3.0 0.14 0.68 0.68 100 1003.7
20260507134041 46 0 1.0 6.0 0.16 0.67 0.67 100 1004.0
20260507133542 45 148 1.0 8.0 0.18 0.66 0.66 100 1004.2
20260507133054 45 142 3.0 9.0 0.18 0.65 0.65 100 1004.2
20260507132541 45 190 4.0 9.0 0.18 0.62 0.62 100 1004.6
20260507132041 46 205 6.0 9.0 0.20 0.62 0.62 100 1005.1
20260507131556 46 192 3.0 7.0 0.22 0.61 0.61 100 1004.9
20260507131045 46 198 3.0 6.0 0.21 0.60 0.60 100 1004.6
20260507130545 46 147 0.0 3.0 0.23 0.59 0.59 100 1004.6
20260507130058 46 0 0.0 7.0 0.25 0.58 0.58 100 1004.5
20260507125541 46 147 1.0 8.0 0.28 0.56 0.56 100 1004.4
20260507125045 45 155 3.0 10.0 0.28 0.55 0.55 100 1004.7
20260507124547 45 163 4.0 10.0 0.28 0.53 0.53 100 1005.1
20260507124042 45 161 4.0 10.0 0.25 0.51 0.51 100 1005.1
20260507123542 45 181 5.0 10.0 0.23 0.48 0.48 100 1005.1
20260507123054 45 189 6.0 12.0 0.21 0.46 0.46 100 1005.1
20260507122541 45 201 6.0 13.0 0.18 0.44 0.44 100 1005.2
20260507122042 45 201 7.0 13.0 0.16 0.41 0.41 100 1005.1
20260507121554 45 183 6.0 10.0 0.14 0.39 0.39 100 1004.9
20260507121043 45 188 4.0 14.0 0.13 0.38 0.38 100 1004.7
20260507120542 45 176 5.0 15.0 0.11 0.36 0.36 100 1004.5
20260507120052 45 178 8.0 15.0 0.07 0.32 0.32 100 1005.7
20260507115541 46 190 8.0 17.0 0.03 0.28 0.28 100 1005.8
20260507115045 46 200 9.0 18.0 0.01 0.26 0.26 100 1005.4
20260507114556 46 203 11.0 18.0 0.00 0.25 0.25 100 1005.5
20260507114047 46 178 10.0 20.0 0.00 0.25 0.25 100 1005.2
20260507113546 47 189 10.0 20.0 0.00 0.25 0.25 100 1005.1
20260507113052 47 184 9.0 18.0 0.00 0.25 0.25 100 1005.0
20260507112545 47 194 10.0 20.0 0.00 0.25 0.25 100 1004.7
20260507112042 47 184 10.0 20.0 0.00 0.25 0.25 100 1004.8
20260507111600 47 166 9.0 19.0 0.00 0.25 0.25 100 1004.5
20260507111041 47 148 6.0 19.0 0.00 0.25 0.25 100 1004.5
20260507110542 47 148 9.0 23.0 0.00 0.25 0.25 100 1004.8
20260507110052 47 159 10.0 23.0 0.00 0.25 0.25 100 1005.0
20260507105541 47 158 9.0 19.0 0.00 0.25 0.25 100 1005.2
20260507105041 47 175 8.0 19.0 0.00 0.25 0.25 100 1004.9
20260507104549 47 141 10.0 19.0 0.00 0.25 0.25 100 1004.6
20260507104041 47 155 8.0 21.0 0.00 0.25 0.25 100 1004.9
20260507103542 47 157 10.0 22.0 0.00 0.25 0.25 100 1005.1
20260507103049 47 168 11.0 22.0 0.00 0.25 0.25 100 1005.2
20260507102545 47 180 9.0 22.0 0.00 0.25 0.25 100 1005.2
20260507102044 47 146 9.0 22.0 0.00 0.25 0.25 100 1005.2
20260507101602 47 161 10.0 22.0 0.00 0.25 0.25 100 1005.4
20260507101045 47 170 12.0 30.0 0.00 0.25 0.25 100 1005.3
20260507100545 48 194 12.0 30.0 0.00 0.25 0.25 100 1005.4
20260507100053 48 180 10.0 26.0 0.00 0.25 0.25 100 1005.3
20260507095542 48 205 12.0 26.0 0.00 0.25 0.25 100 1005.2
20260507095042 48 175 13.0 24.0 0.00 0.25 0.25 100 1005.1
20260507094549 48 175 12.0 22.0 0.00 0.25 0.25 100 1005.0
20260507094042 48 154 12.0 22.0 0.00 0.25 0.25 100 1004.7
20260507093541 48 165 10.0 20.0 0.00 0.25 0.25 100 1004.5
20260507093051 48 167 10.0 24.0 0.00 0.25 0.25 100 1004.7
20260507092542 48 153 10.0 24.0 0.00 0.25 0.25 100 1004.8
20260507092043 48 134 9.0 24.0 0.00 0.25 0.25 100 1004.8
20260507091549 48 148 10.0 24.0 0.00 0.25 0.25 100 1005.0
20260507091044 48 179 12.0 27.0 0.00 0.25 0.25 100 1005.1
20260507090543 49 186 10.0 27.0 0.00 0.25 0.25 100 1005.3
20260507090049 48 168 11.0 21.0 0.00 0.25 0.25 100 1005.2
20260507085545 48 147 10.0 26.0 0.00 0.25 0.25 100 1005.2
20260507085045 49 174 12.0 32.0 0.00 0.25 0.25 100 1005.1
20260507084549 49 170 15.0 34.0 0.00 0.25 0.25 100 1005.4
20260507084045 49 156 16.0 34.0 0.00 0.25 0.25 100 1005.3
20260507083545 49 179 14.0 30.0 0.00 0.25 0.25 100 1005.3
20260507083050 49 154 14.0 29.0 0.00 0.25 0.25 100 1005.1
20260507082545 49 196 14.0 29.0 0.00 0.25 0.25 100 1005.2
20260507082045 49 182 15.0 33.0 0.00 0.25 0.25 99 1005.1
20260507081550 50 182 17.0 33.0 0.00 0.25 0.25 99 1005.4
20260507081044 50 161 11.0 26.0 0.00 0.25 0.25 99 1005.2
20260507080545 50 200 13.0 26.0 0.00 0.25 0.25 99 1005.3
20260507080050 50 180 13.0 29.0 0.00 0.25 0.25 99 1005.3
20260507075544 50 177 14.0 31.0 0.00 0.25 0.25 99 1005.3
20260507075044 50 169 15.0 31.0 0.00 0.25 0.25 99 1005.4
20260507074554 50 169 11.0 29.0 0.01 0.25 0.25 99 1005.4
20260507074044 50 138 15.0 31.0 0.01 0.25 0.25 99 1005.3
20260507073542 50 161 13.0 31.0 0.01 0.25 0.25 99 1005.5
20260507073051 50 172 14.0 28.0 0.02 0.25 0.25 99 1005.5
20260507072546 50 166 16.0 30.0 0.02 0.25 0.25 99 1005.5
20260507072045 50 119 12.0 31.0 0.03 0.25 0.25 99 1005.5
20260507071551 51 161 16.0 36.0 0.04 0.25 0.25 99 1005.5
20260507071047 51 160 18.0 36.0 0.06 0.25 0.25 98 1005.4
20260507070545 51 172 17.0 31.0 0.07 0.25 0.25 98 1005.5
20260507070054 52 172 16.0 31.0 0.07 0.24 0.24 99 1005.6
20260507065544 52 162 17.0 39.0 0.07 0.24 0.24 98 1005.5
20260507065044 52 159 16.0 39.0 0.07 0.24 0.24 98 1005.6
20260507064607 52 185 17.0 33.0 0.07 0.23 0.23 98 1005.5
20260507064044 53 160 17.0 34.0 0.07 0.23 0.23 98 1005.4
20260507063544 53 150 19.0 34.0 0.08 0.23 0.23 98 1005.5
20260507063053 53 159 18.0 34.0 0.08 0.22 0.22 98 1005.7
20260507062544 54 182 17.0 36.0 0.09 0.22 0.22 98 1005.5
20260507062044 54 163 17.0 39.0 0.08 0.22 0.22 98 1005.7
20260507061552 54 183 21.0 39.0 0.07 0.20 0.20 98 1005.7
20260507061043 54 167 17.0 39.0 0.07 0.18 0.18 98 1005.8
20260507060544 55 163 15.0 41.0 0.07 0.17 0.17 98 1005.8
20260507060050 55 165 20.0 41.0 0.10 0.17 0.17 98 1005.6
20260507055545 55 166 13.0 32.0 0.11 0.16 0.16 98 1005.7
20260507055045 56 182 15.0 32.0 0.12 0.16 0.16 98 1005.7
20260507054604 56 173 17.0 31.0 0.13 0.15 0.15 98 1006.1
20260507054045 55 140 14.0 32.0 0.14 0.15 0.15 98 1006.2
20260507053545 55 178 16.0 32.0 0.14 0.14 0.14 98 1006.2
20260507053049 55 169 16.0 31.0 0.13 0.14 0.14 98 1006.3
20260507052548 55 142 15.0 31.0 0.12 0.13 0.13 97 1006.6
20260507052044 55 179 15.0 33.0 0.12 0.13 0.13 97 1006.7
20260507051550 55 170 17.0 33.0 0.11 0.12 0.12 97 1006.8
20260507051041 55 192 15.0 32.0 0.10 0.11 0.11 97 1006.8
20260507050544 55 167 16.0 30.0 0.08 0.09 0.09 96 1006.9
20260507050052 56 163 14.0 32.0 0.06 0.07 0.07 96 1006.9
20260507045547 56 128 17.0 34.0 0.04 0.05 0.05 96 1007.1
20260507045044 56 159 15.0 34.0 0.03 0.03 0.03 95 1007.2
20260507044550 56 134 15.0 34.0 0.01 0.02 0.02 94 1007.4
20260507044043 57 134 17.0 34.0 0.01 0.01 0.01 95 1007.3
20260507043543 57 192 14.0 29.0 0.00 0.00 0.00 94 1007.6
20260507043100 57 183 15.0 29.0 0.00 0.00 0.00 94 1007.6
20260507042545 57 163 14.0 29.0 0.00 0.00 0.00 95 1007.9
20260507042041 57 162 14.0 29.0 0.00 0.00 0.00 95 1007.8
20260507041603 57 163 15.0 26.0 0.00 0.00 0.00 94 1007.8
20260507041045 57 155 14.0 23.0 0.00 0.00 0.00 94 1008.1
20260507040545 57 165 12.0 23.0 0.00 0.00 0.00 94 1008.2
20260507040058 57 132 13.0 29.0 0.00 0.00 0.00 94 1008.2
20260507035541 57 196 12.0 30.0 0.00 0.00 0.00 94 1008.5
20260507035044 57 144 16.0 30.0 0.00 0.00 0.00 94 1008.6
20260507034557 57 146 14.0 31.0 0.00 0.00 0.00 94 1008.5
20260507034045 57 166 14.0 31.0 0.00 0.00 0.00 94 1008.5
20260507033544 57 144 13.0 27.0 0.00 0.00 0.00 93 1008.1
20260507033052 57 129 12.0 26.0 0.00 0.00 0.00 93 1008.5
20260507032543 57 136 11.0 26.0 0.00 0.00 0.00 93 1008.9
20260507032045 57 130 12.0 26.0 0.00 0.00 0.00 92 1009.2
20260507031549 57 153 12.0 26.0 0.00 0.00 0.00 92 1009.0
20260507031041 57 145 14.0 26.0 0.00 0.00 0.00 92 1009.3
20260507030544 57 146 12.0 31.0 0.00 0.00 0.00 91 1009.5
20260507030056 57 144 15.0 31.0 0.00 0.00 0.00 91 1009.5
20260507025544 57 176 15.0 31.0 0.00 0.00 0.00 91 1009.8
20260507025042 57 144 12.0 31.0 0.00 0.00 0.00 91 1010.0
20260507024551 57 131 14.0 30.0 0.00 0.00 0.00 90 1010.1
20260507024044 58 144 16.0 30.0 0.00 0.00 0.00 90 1010.2
20260507023543 58 102 14.0 36.0 0.00 0.00 0.00 90 1010.2
20260507023103 58 164 13.0 36.0 0.00 0.00 0.00 90 1010.5
20260507022545 57 165 11.0 32.0 0.00 0.00 0.00 90 1010.7
20260507022043 57 132 13.0 32.0 0.00 0.00 0.00 90 1010.7
20260507021553 57 148 13.0 29.0 0.00 0.00 0.00 90 1010.8
20260507021044 57 145 13.0 26.0 0.00 0.00 0.00 90 1010.7
20260507020545 57 134 13.0 29.0 0.00 0.00 0.00 90 1010.7
20260507020050 57 138 13.0 29.0 0.00 0.00 0.00 90 1010.8
20260507015544 57 170 13.0 29.0 0.00 0.00 0.00 90 1011.0
20260507015044 57 175 14.0 30.0 0.00 0.00 0.00 90 1011.3
20260507014558 57 159 14.0 30.0 0.00 0.00 0.00 90 1011.1
20260507014041 57 138 15.0 29.0 0.00 0.00 0.00 90 1011.4
20260507013543 57 148 14.0 29.0 0.00 0.00 0.00 90 1011.4
20260507013103 57 175 14.0 28.0 0.00 0.00 0.00 91 1011.5
20260507012543 57 111 12.0 32.0 0.00 0.00 0.00 91 1011.6
20260507012044 56 180 15.0 35.0 0.00 0.00 0.00 91 1011.6
20260507011553 56 151 16.0 38.0 0.00 0.00 0.00 91 1011.6
20260507011044 56 171 18.0 38.0 0.00 0.00 0.00 91 1011.8
20260507010545 55 137 14.0 28.0 0.00 0.00 0.00 91 1011.9
20260507010051 55 155 13.0 28.0 0.00 0.00 0.00 92 1011.9
20260507005559 55 110 14.0 31.0 0.00 0.00 0.00 91 1011.8
20260507005045 55 176 14.0 33.0 0.00 0.00 0.00 91 1012.1
20260507004551 55 142 15.0 33.0 0.00 0.00 0.00 91 1012.1
20260507004046 55 144 14.0 26.0 0.00 0.00 0.00 91 1012.3
20260507003544 56 163 13.0 25.0 0.00 0.00 0.00 91 1012.2
20260507003050 56 80 10.0 22.0 0.00 0.00 0.00 91 1012.2
20260507002542 56 145 11.0 22.0 0.00 0.00 0.00 91 1012.3
20260507002043 56 113 12.0 26.0 0.00 0.00 0.00 91 1011.4
20260507001612 56 142 10.0 26.0 0.00 0.00 0.00 92 1011.7
20260507001047 55 128 10.0 26.0 0.00 0.00 0.00 92 1011.8
20260507000545 55 132 12.0 29.0 0.00 0.00 0.00 92 1011.9
20260507000052 55 182 12.0 29.0 0.00 0.00 0.00 91 1012.4
20260506235544 55 171 16.0 30.0 0.00 0.00 0.00 92 1012.5
20260506235044 55 151 17.0 30.0 0.00 0.00 0.00 93 1012.5
20260506234549 54 177 12.0 26.0 0.00 0.00 0.00 93 1012.6
20260506234048 54 130 12.0 28.0 0.00 0.00 0.00 92 1012.7
20260506233544 54 171 14.0 33.0 0.00 0.00 0.00 92 1012.8
20260506233057 55 169 15.0 33.0 0.00 0.00 0.00 92 1012.7
20260506232544 54 138 16.0 32.0 0.00 0.00 0.00 93 1013.0
20260506232044 54 159 16.0 28.0 0.00 0.00 0.00 93 1012.9
20260506231551 54 178 15.0 28.0 0.00 0.00 0.00 92 1012.9
20260506231044 54 169 16.0 30.0 0.00 0.00 0.00 92 1013.0
20260506230544 55 162 14.0 30.0 0.00 0.00 0.00 92 1013.0
20260506230059 55 157 14.0 30.0 0.00 0.00 0.00 92 1012.8
20260506225543 54 127 13.0 27.0 0.00 0.00 0.00 92 1012.9
20260506225043 55 135 13.0 30.0 0.00 0.00 0.00 92 1012.8
20260506224552 54 167 14.0 30.0 0.00 0.00 0.00 91 1012.9
20260506224042 55 187 16.0 28.0 0.00 0.00 0.00 91 1012.9
20260506223547 55 171 16.0 28.0 0.00 0.00 0.00 91 1012.9
20260506223104 55 191 16.0 28.0 0.00 0.00 0.00 92 1012.8
20260506222544 55 134 15.0 35.0 0.00 0.00 0.00 92 1012.8
20260506222044 55 136 12.0 35.0 0.00 0.00 0.00 91 1012.9
20260506221552 55 150 13.0 33.0 0.00 0.00 0.00 91 1012.9
20260506221042 55 176 16.0 33.0 0.00 0.00 0.00 91 1013.0
20260506220544 55 150 15.0 31.0 0.00 0.00 0.00 91 1013.1
20260506220051 55 122 18.0 31.0 0.00 0.00 0.00 90 1013.2
20260506215544 56 175 17.0 33.0 0.00 0.00 0.00 89 1013.2
20260506215043 56 149 16.0 33.0 0.00 0.00 0.00 90 1013.1
20260506214600 56 126 16.0 33.0 0.00 0.00 0.00 90 1013.1
20260506214043 56 121 15.0 32.0 0.00 0.00 0.00 90 1013.1
20260506213545 56 164 19.0 32.0 0.00 0.00 0.00 91 1013.1
20260506213051 56 153 13.0 28.0 0.00 0.00 0.00 90 1013.1
20260506212545 56 144 16.0 29.0 0.00 0.00 0.00 90 1013.1
20260506212049 56 183 13.0 29.0 0.00 0.00 0.00 90 1013.1
20260506211552 56 160 14.0 29.0 0.00 0.00 0.00 90 1013.2
20260506211044 56 174 18.0 31.0 0.00 0.00 0.00 90 1013.1
20260506210545 56 158 17.0 31.0 0.00 0.00 0.00 90 1013.4
20260506210051 56 139 14.0 36.0 0.00 0.00 0.00 89 1013.5
20260506205543 56 150 16.0 40.0 0.00 0.00 0.00 88 1013.6
20260506205044 57 167 17.0 40.0 0.00 0.00 0.00 89 1013.6
20260506204551 56 164 14.0 34.0 0.00 0.00 0.00 89 1013.7
20260506204043 57 167 18.0 39.0 0.00 0.00 0.00 88 1013.6
20260506203543 57 190 16.0 42.0 0.00 0.00 0.00 88 1013.4
20260506203100 57 178 18.0 42.0 0.00 0.00 0.00 88 1013.5
20260506202546 57 153 18.0 37.0 0.00 0.00 0.00 88 1013.6
20260506202043 58 150 17.0 35.0 0.00 0.00 0.00 87 1013.5
20260506201550 58 148 15.0 35.0 0.00 0.00 0.00 88 1013.5
20260506201047 58 146 18.0 35.0 0.00 0.00 0.00 88 1013.5
20260506200544 57 168 16.0 35.0 0.00 0.00 0.00 88 1013.5
20260506200135 57 178 17.0 32.0 0.00 0.00 0.00 87 1013.6
20260506195544 58 155 15.0 35.0 0.00 0.00 0.00 86 1013.5
20260506195041 59 183 18.0 35.0 0.00 0.00 0.00 87 1013.5
20260506194600 58 169 15.0 31.0 0.00 0.00 0.00 87 1013.5
20260506194043 58 153 13.0 29.0 0.00 0.00 0.00 86 1013.4
20260506193546 58 163 15.0 40.0 0.00 0.00 0.00 85 1013.3
20260506193052 59 170 15.0 42.0 0.00 0.00 0.00 85 1013.4
20260506192544 59 150 19.0 42.0 0.00 0.00 0.00 85 1013.2
20260506192045 59 175 17.0 39.0 0.00 0.00 0.00 85 1013.6
20260506191555 59 144 19.0 39.0 0.00 0.00 0.00 84 1013.7
20260506191045 60 152 18.0 35.0 0.00 0.00 0.00 85 1013.5
20260506190546 60 164 18.0 36.0 0.00 0.00 0.00 84 1013.3
20260506190057 60 138 14.0 36.0 0.00 0.00 0.00 84 1013.2
20260506185548 60 140 17.0 37.0 0.00 0.00 0.00 83 1013.4